Time,TemperatureF,DewpointF,PressureIn,WindDirection,WindDirectionDegrees,WindSpeedMPH,WindSpeedGustMPH,Humidity,HourlyPrecipIn,Conditions,Clouds,dailyrainin,SoftwareType,DateUTC
2013-01-15 00:00:00,38.1,36.0,30.38,West,270,2.6,0.0,92,0.22,,RA,0.00,VWS V13.01,2013-01-15 05:00:00,
2013-01-15 00:01:00,38.1,36.0,30.38,West,270,2.6,0.0,92,0.22,,RA,0.00,VWS V13.01,2013-01-15 05:01:00,
2013-01-15 00:02:00,38.1,36.0,30.38,West,270,2.6,0.0,92,0.22,,RA,0.00,VWS V13.01,2013-01-15 05:02:00,
2013-01-15 00:03:00,38.1,36.0,30.37,West,270,2.6,0.0,92,0.18,,RA,0.00,VWS V13.01,2013-01-15 05:03:00,
2013-01-15 00:08:00,38.1,36.0,30.35,West,270,2.6,0.0,92,0.18,,RA,0.00,VWS V13.01,2013-01-15 05:08:00,
2013-01-15 00:13:00,38.1,36.0,30.35,West,270,2.6,0.0,92,0.22,,RA,0.04,VWS V13.01,2013-01-15 05:13:00,
2013-01-15 00:18:00,38.3,36.2,30.35,West,270,2.6,0.0,92,0.18,,RA,0.04,VWS V13.01,2013-01-15 05:18:00,
2013-01-15 00:23:00,38.3,36.2,30.35,WNW,292,2.4,0.0,92,0.18,,RA,0.04,VWS V13.01,2013-01-15 05:23:00,
2013-01-15 00:28:00,38.3,36.0,30.35,WNW,292,1.1,0.0,92,0.22,,RA,0.08,VWS V13.01,2013-01-15 05:28:00,
2013-01-15 00:34:00,38.1,36.0,30.35,WNW,292,0.4,0.0,92,0.18,,RA,0.08,VWS V13.01,2013-01-15 05:34:00,
2013-01-15 00:39:00,38.1,35.8,30.36,NNW,338,4.0,0.0,92,0.18,,RA,0.08,VWS V13.01,2013-01-15 05:39:00,
2013-01-15 00:44:00,37.9,36.1,30.35,NNW,338,4.0,0.0,92,0.14,,-RA,0.08,VWS V13.01,2013-01-15 05:44:00,
2013-01-15 00:49:00,37.9,35.9,30.35,NNW,338,4.0,0.0,92,0.12,,-RA,0.10,VWS V13.01,2013-01-15 05:49:00,
2013-01-15 00:54:00,37.9,36.1,30.35,NNW,338,4.0,0.0,92,0.12,,-RA,0.10,VWS V13.01,2013-01-15 05:54:00,
2013-01-15 00:59:00,37.9,36.1,30.35,NNW,338,4.0,0.0,92,0.10,,-RA,0.10,VWS V13.01,2013-01-15 05:59:00,
2013-01-15 01:04:00,37.9,35.9,30.35,NNW,338,2.4,0.0,92,0.10,,-RA,0.10,VWS V13.01,2013-01-15 06:04:00,
2013-01-15 01:09:00,37.7,35.9,30.35,NNW,338,2.4,0.0,93,0.06,,-RA,0.10,VWS V13.01,2013-01-15 06:09:00,
2013-01-15 01:14:00,37.7,35.7,30.35,NNW,338,2.4,0.0,93,0.06,,-RA,0.10,VWS V13.01,2013-01-15 06:14:00,
2013-01-15 01:19:00,37.7,35.9,30.36,NNW,338,2.6,0.0,93,0.06,,-RA,0.10,VWS V13.01,2013-01-15 06:19:00,
2013-01-15 01:24:00,37.7,35.7,30.35,NNW,338,2.6,0.0,93,0.06,,-RA,0.10,VWS V13.01,2013-01-15 06:24:00,
2013-01-15 01:29:00,37.7,35.7,30.35,NNW,338,2.6,0.0,93,0.02,,-RA,0.10,VWS V13.01,2013-01-15 06:29:00,
2013-01-15 01:34:00,37.5,35.7,30.33,NNW,338,2.6,0.0,93,0.02,,-RA,0.10,VWS V13.01,2013-01-15 06:34:00,
2013-01-15 01:39:00,37.5,35.7,30.33,NNW,338,2.6,0.0,93,0.06,,-RA,0.14,VWS V13.01,2013-01-15 06:39:00,
2013-01-15 01:44:00,37.5,35.9,30.33,NNW,338,2.6,0.0,93,0.06,,-RA,0.14,VWS V13.01,2013-01-15 06:44:00,
2013-01-15 01:49:00,37.7,35.9,30.36,NW,315,4.4,0.0,93,0.04,,-RA,0.14,VWS V13.01,2013-01-15 06:49:00,
2013-01-15 01:54:00,37.7,35.9,30.36,NW,315,3.3,0.0,93,0.04,,-RA,0.14,VWS V13.01,2013-01-15 06:54:00,
2013-01-15 01:59:00,37.7,35.9,30.34,NW,315,3.3,0.0,93,0.04,,-RA,0.14,VWS V13.01,2013-01-15 06:59:00,
2013-01-15 02:04:00,37.9,35.9,30.34,North,0,3.3,0.0,93,0.04,,-RA,0.14,VWS V13.01,2013-01-15 07:04:00,
2013-01-15 02:09:00,37.9,36.1,30.34,NW,315,4.4,0.0,93,0.04,,-RA,0.14,VWS V13.01,2013-01-15 07:09:00,
2013-01-15 02:14:00,37.9,36.1,30.35,NW,315,4.4,0.0,93,0.04,,-RA,0.14,VWS V13.01,2013-01-15 07:14:00,
2013-01-15 02:19:00,37.9,35.9,30.35,NW,315,4.4,0.0,93,0.04,,-RA,0.14,VWS V13.01,2013-01-15 07:19:00,
2013-01-15 02:24:00,37.9,36.1,30.34,NW,315,4.4,0.0,93,0.04,,-RA,0.14,VWS V13.01,2013-01-15 07:24:00,
2013-01-15 02:29:00,37.9,36.1,30.33,NW,315,4.4,0.0,93,0.04,,-RA,0.14,VWS V13.01,2013-01-15 07:29:00,
2013-01-15 02:34:00,37.9,36.1,30.33,NW,315,4.4,0.0,93,0.00,,-RA,0.14,VWS V13.01,2013-01-15 07:34:00,
2013-01-15 02:40:00,37.9,36.3,30.33,NW,315,4.4,0.0,93,0.00,,-RA,0.14,VWS V13.01,2013-01-15 07:40:00,
2013-01-15 02:45:00,37.9,36.1,30.33,NW,315,4.4,0.0,93,0.00,,OVC036,0.14,VWS V13.01,2013-01-15 07:45:00,
2013-01-15 02:50:00,37.9,36.1,30.34,North,0,0.6,0.0,93,0.00,,OVC036,0.14,VWS V13.01,2013-01-15 07:50:00,
2013-01-15 02:55:00,37.9,36.1,30.34,NW,315,1.5,0.0,93,0.00,,OVC036,0.14,VWS V13.01,2013-01-15 07:55:00,
2013-01-15 03:00:00,37.9,36.1,30.34,NW,315,1.5,0.0,93,0.00,,OVC036,0.14,VWS V13.01,2013-01-15 08:00:00,
2013-01-15 03:05:00,37.9,36.1,30.34,NW,315,1.5,0.0,93,0.00,,OVC009,0.14,VWS V13.01,2013-01-15 08:05:00,
2013-01-15 03:10:00,38.1,36.3,30.33,NW,315,1.5,0.0,93,0.00,,OVC009,0.14,VWS V13.01,2013-01-15 08:10:00,
2013-01-15 03:15:00,38.1,36.3,30.33,NW,315,1.5,0.0,93,0.00,,OVC009,0.14,VWS V13.01,2013-01-15 08:15:00,
2013-01-15 03:20:00,38.1,36.3,30.32,NW,315,1.5,0.0,93,0.00,,OVC009,0.14,VWS V13.01,2013-01-15 08:20:00,
2013-01-15 03:25:00,38.1,36.3,30.32,NW,315,1.5,0.0,93,0.00,,OVC009,0.14,VWS V13.01,2013-01-15 08:25:00,
2013-01-15 03:30:00,38.3,36.3,30.32,NW,315,1.5,0.0,93,0.00,,OVC009,0.14,VWS V13.01,2013-01-15 08:30:00,
2013-01-15 03:35:00,38.1,36.5,30.32,NW,315,1.5,0.0,93,0.00,,OVC009,0.14,VWS V13.01,2013-01-15 08:35:00,
2013-01-15 03:40:00,38.3,36.3,30.31,NW,315,1.5,0.0,93,0.00,,OVC006,0.14,VWS V13.01,2013-01-15 08:40:00,
2013-01-15 03:46:00,38.1,36.5,30.32,NW,315,1.5,0.0,93,0.00,,OVC006,0.14,VWS V13.01,2013-01-15 08:46:00,
2013-01-15 03:51:00,38.4,36.6,30.31,NW,315,1.5,0.0,93,0.00,,OVC038,0.14,VWS V13.01,2013-01-15 08:51:00,
2013-01-15 03:56:00,38.4,36.6,30.32,NW,315,1.5,0.0,93,0.00,,OVC038,0.14,VWS V13.01,2013-01-15 08:56:00,
2013-01-15 04:01:00,38.4,36.6,30.32,NW,315,1.5,0.0,93,0.00,,OVC038,0.14,VWS V13.01,2013-01-15 09:01:00,
2013-01-15 04:06:00,38.4,36.6,30.31,NW,315,1.5,0.0,93,0.00,,OVC038,0.14,VWS V13.01,2013-01-15 09:06:00,
2013-01-15 04:11:00,38.6,36.6,30.31,NW,315,1.5,0.0,93,0.00,,OVC038,0.14,VWS V13.01,2013-01-15 09:11:00,
2013-01-15 04:16:00,38.8,37.0,30.30,NW,315,1.5,0.0,93,0.00,,OVC038,0.14,VWS V13.01,2013-01-15 09:16:00,
2013-01-15 04:21:00,38.8,37.0,30.31,NNW,338,0.2,0.0,93,0.00,,OVC038,0.14,VWS V13.01,2013-01-15 09:21:00,
2013-01-15 04:26:00,38.8,37.0,30.31,NNW,338,0.2,0.0,93,0.00,,OVC038,0.14,VWS V13.01,2013-01-15 09:26:00,
2013-01-15 04:31:00,38.8,37.0,30.30,NNW,338,0.2,0.0,93,0.00,,OVC038,0.14,VWS V13.01,2013-01-15 09:31:00,
2013-01-15 04:36:00,38.8,37.0,30.30,North,0,0.2,0.0,93,0.00,,OVC038,0.14,VWS V13.01,2013-01-15 09:36:00,
2013-01-15 04:41:00,39.0,37.2,30.30,NNW,338,0.2,0.0,93,0.00,,OVC031,0.14,VWS V13.01,2013-01-15 09:41:00,
2013-01-15 04:46:00,39.0,37.2,30.30,NNW,338,0.2,0.0,93,0.00,,OVC031,0.14,VWS V13.01,2013-01-15 09:46:00,
2013-01-15 04:51:00,39.0,37.2,30.31,NNW,338,0.2,0.0,94,0.00,,OVC031,0.14,VWS V13.01,2013-01-15 09:51:00,
2013-01-15 04:56:00,39.0,37.4,30.31,NNW,338,0.2,0.0,93,0.00,,OVC031,0.14,VWS V13.01,2013-01-15 09:56:00,
2013-01-15 05:01:00,39.0,37.4,30.31,NNW,338,0.2,0.0,94,0.00,,OVC026,0.14,VWS V13.01,2013-01-15 10:01:00,
2013-01-15 05:06:00,39.0,37.6,30.30,NNW,338,0.2,0.0,94,0.00,,OVC026,0.14,VWS V13.01,2013-01-15 10:06:00,
2013-01-15 05:11:00,39.2,37.4,30.30,NNW,338,0.2,0.0,94,0.00,,OVC026,0.14,VWS V13.01,2013-01-15 10:11:00,
2013-01-15 05:16:00,39.0,37.4,30.30,NNW,338,1.5,0.0,94,0.04,,OVC026,0.19,VWS V13.01,2013-01-15 10:16:00,
2013-01-15 05:22:00,39.0,37.4,30.32,NNW,338,2.2,0.0,94,0.04,,OVC026,0.19,VWS V13.01,2013-01-15 10:22:00,
2013-01-15 05:27:00,39.0,37.4,30.31,North,0,2.2,0.0,94,0.04,,OVC026,0.19,VWS V13.01,2013-01-15 10:27:00,
2013-01-15 05:32:00,39.0,37.4,30.31,North,0,2.2,0.0,94,0.04,,OVC026,0.19,VWS V13.01,2013-01-15 10:32:00,
2013-01-15 05:37:00,39.0,37.6,30.30,NNE,22,2.2,0.0,94,0.08,,OVC026,0.22,VWS V13.01,2013-01-15 10:37:00,
2013-01-15 05:42:00,39.0,37.6,30.31,North,0,2.2,0.0,94,0.08,,OVC021,0.22,VWS V13.01,2013-01-15 10:42:00,
2013-01-15 05:47:00,39.3,37.7,30.31,NNE,22,2.2,0.0,94,0.08,,OVC021,0.22,VWS V13.01,2013-01-15 10:47:00,
2013-01-15 05:52:00,39.3,37.7,30.30,NNE,22,2.2,0.0,94,0.08,,OVC021,0.22,VWS V13.01,2013-01-15 10:52:00,
2013-01-15 05:57:00,39.3,37.7,30.31,NNE,22,2.2,0.0,94,0.08,,OVC021,0.22,VWS V13.01,2013-01-15 10:57:00,
2013-01-15 06:02:00,39.3,37.7,30.31,NNE,22,2.2,0.0,94,0.08,,,0.22,VWS V13.01,2013-01-15 11:02:00,
2013-01-15 06:07:00,39.3,37.7,30.31,NNE,22,2.2,0.0,94,0.12,,,0.26,VWS V13.01,2013-01-15 11:07:00,
2013-01-15 06:12:00,39.3,37.7,30.32,NNE,22,2.2,0.0,94,0.12,,,0.26,VWS V13.01,2013-01-15 11:12:00,
2013-01-15 06:17:00,39.3,37.7,30.33,NNE,22,2.2,0.0,94,0.08,,,0.26,VWS V13.01,2013-01-15 11:17:00,
2013-01-15 06:22:00,39.3,37.7,30.32,NNE,22,2.2,0.0,94,0.08,,,0.26,VWS V13.01,2013-01-15 11:22:00,
2013-01-15 06:27:00,39.5,37.9,30.32,NNE,22,2.2,0.0,94,0.12,,,0.31,VWS V13.01,2013-01-15 11:27:00,
2013-01-15 06:32:00,39.5,37.9,30.33,NNE,22,2.2,0.0,94,0.12,,,0.31,VWS V13.01,2013-01-15 11:32:00,
2013-01-15 06:37:00,39.5,38.1,30.33,NNE,22,2.2,0.0,94,0.08,,,0.31,VWS V13.01,2013-01-15 11:37:00,
2013-01-15 06:42:00,39.7,38.1,30.31,NNE,22,2.2,0.0,94,0.08,,,0.31,VWS V13.01,2013-01-15 11:42:00,
2013-01-15 06:47:00,39.7,38.3,30.32,NNE,22,2.2,0.0,94,0.08,,,0.31,VWS V13.01,2013-01-15 11:47:00,
2013-01-15 06:52:00,39.7,38.1,30.34,NNE,22,2.2,0.0,94,0.08,,,0.31,VWS V13.01,2013-01-15 11:52:00,
2013-01-15 06:57:00,39.9,38.3,30.33,NNE,22,2.2,0.0,94,0.08,,,0.31,VWS V13.01,2013-01-15 11:57:00,
2013-01-15 07:02:00,39.9,38.3,30.34,North,0,2.2,0.0,94,0.08,,,0.31,VWS V13.01,2013-01-15 12:02:00,
2013-01-15 07:07:00,39.9,38.3,30.35,NNW,338,1.7,0.0,94,0.04,,,0.31,VWS V13.01,2013-01-15 12:07:00,
2013-01-15 07:12:00,39.9,38.3,30.35,NNW,338,1.7,0.0,94,0.04,,OVC015,0.31,VWS V13.01,2013-01-15 12:12:00,
2013-01-15 07:17:00,39.9,38.3,30.33,ENE,68,0.2,0.0,94,0.08,,OVC015,0.35,VWS V13.01,2013-01-15 12:17:00,
2013-01-15 07:22:00,39.9,38.3,30.34,ENE,68,0.2,0.0,94,0.08,,OVC015,0.35,VWS V13.01,2013-01-15 12:22:00,
2013-01-15 07:28:00,39.9,38.3,30.33,ENE,68,0.2,0.0,94,0.04,,OVC015,0.35,VWS V13.01,2013-01-15 12:28:00,
2013-01-15 07:33:00,39.9,38.3,30.32,ENE,68,0.2,0.0,94,0.04,,OVC015,0.35,VWS V13.01,2013-01-15 12:33:00,
2013-01-15 07:38:00,39.9,38.3,30.33,NNW,338,0.2,0.0,94,0.04,,OVC015,0.35,VWS V13.01,2013-01-15 12:38:00,
2013-01-15 07:43:00,39.9,38.3,30.35,NNW,338,1.3,0.0,94,0.04,,OVC015,0.35,VWS V13.01,2013-01-15 12:43:00,
2013-01-15 07:48:00,39.9,38.3,30.34,North,0,1.3,0.0,94,0.04,,OVC015,0.35,VWS V13.01,2013-01-15 12:48:00,
2013-01-15 07:53:00,39.9,38.3,30.36,North,0,1.5,0.0,94,0.04,,OVC015,0.35,VWS V13.01,2013-01-15 12:53:00,
2013-01-15 07:58:00,39.9,38.3,30.37,North,0,1.5,0.0,94,0.04,,OVC015,0.35,VWS V13.01,2013-01-15 12:58:00,
2013-01-15 08:03:00,39.9,38.3,30.38,North,0,0.4,0.0,94,0.04,,OVC015,0.35,VWS V13.01,2013-01-15 13:03:00,
2013-01-15 08:08:00,39.9,38.1,30.37,North,0,0.4,0.0,94,0.04,,OVC015,0.35,VWS V13.01,2013-01-15 13:08:00,
2013-01-15 08:13:00,39.9,38.3,30.37,North,0,0.4,0.0,94,0.04,,,0.39,VWS V13.01,2013-01-15 13:13:00,
2013-01-15 08:18:00,39.9,38.3,30.37,North,0,0.4,0.0,94,0.04,,,0.39,VWS V13.01,2013-01-15 13:18:00,
2013-01-15 08:23:00,39.9,38.3,30.36,North,0,0.4,0.0,94,0.04,,,0.39,VWS V13.01,2013-01-15 13:23:00,
2013-01-15 08:28:00,39.9,38.3,30.36,North,0,0.4,0.0,94,0.04,,,0.39,VWS V13.01,2013-01-15 13:28:00,
2013-01-15 08:33:00,39.9,38.3,30.36,North,0,0.4,0.0,94,0.04,,,0.39,VWS V13.01,2013-01-15 13:33:00,
2013-01-15 08:38:00,39.9,38.5,30.35,NNE,22,0.4,0.0,94,0.04,,,0.39,VWS V13.01,2013-01-15 13:38:00,
2013-01-15 08:43:00,39.9,38.6,30.36,NNE,22,0.4,0.0,94,0.04,,RA,0.39,VWS V13.01,2013-01-15 13:43:00,
2013-01-15 08:48:00,40.2,38.6,30.36,NNE,22,0.4,0.0,94,0.04,,RA,0.39,VWS V13.01,2013-01-15 13:48:00,
2013-01-15 08:53:00,40.2,38.8,30.37,NE,45,0.6,0.0,94,0.04,,RA,0.39,VWS V13.01,2013-01-15 13:53:00,
2013-01-15 08:58:00,40.4,39.0,30.38,NE,45,0.6,0.0,94,0.04,,RA,0.39,VWS V13.01,2013-01-15 13:58:00,
2013-01-15 09:03:00,40.6,39.0,30.37,ENE,68,0.6,0.0,94,0.04,,-RA,0.39,VWS V13.01,2013-01-15 14:03:00,
2013-01-15 09:08:00,40.6,39.0,30.38,NNE,22,0.6,0.0,94,0.04,,-RA,0.39,VWS V13.01,2013-01-15 14:08:00,
2013-01-15 09:13:00,40.6,39.0,30.38,NNE,22,0.6,0.0,94,0.00,,-RA,0.39,VWS V13.01,2013-01-15 14:13:00,
2013-01-15 09:18:00,40.6,39.0,30.38,NNE,22,0.6,0.0,94,0.00,,-RA,0.39,VWS V13.01,2013-01-15 14:18:00,
2013-01-15 09:23:00,40.6,39.0,30.37,ENE,68,3.3,0.0,94,0.00,,-RA,0.39,VWS V13.01,2013-01-15 14:23:00,
2013-01-15 09:28:00,40.6,39.0,30.39,NE,45,3.3,0.0,94,0.00,,-RA,0.39,VWS V13.01,2013-01-15 14:28:00,
2013-01-15 09:33:00,40.6,38.8,30.39,NE,45,3.3,0.0,94,0.00,,,0.39,VWS V13.01,2013-01-15 14:33:00,
2013-01-15 09:38:00,40.6,39.0,30.39,NE,45,0.4,0.0,94,0.00,,,0.39,VWS V13.01,2013-01-15 14:38:00,
2013-01-15 09:43:00,40.6,39.0,30.39,NE,45,0.4,0.0,94,0.00,,,0.39,VWS V13.01,2013-01-15 14:43:00,
2013-01-15 09:48:00,40.6,39.0,30.38,NE,45,0.4,0.0,94,0.00,,,0.39,VWS V13.01,2013-01-15 14:48:00,
2013-01-15 09:53:00,40.8,39.0,30.38,ENE,68,0.4,0.0,94,0.00,,,0.39,VWS V13.01,2013-01-15 14:53:00,
2013-01-15 09:58:00,40.8,39.2,30.37,ESE,112,3.5,0.0,94,0.00,,,0.39,VWS V13.01,2013-01-15 14:58:00,
2013-01-15 10:03:00,40.8,39.2,30.36,ESE,112,1.7,0.0,94,0.00,,,0.39,VWS V13.01,2013-01-15 15:03:00,
2013-01-15 10:09:00,40.8,39.2,30.36,ESE,112,0.8,0.0,94,0.00,,,0.39,VWS V13.01,2013-01-15 15:09:00,
2013-01-15 10:14:00,40.8,39.2,30.37,East,90,1.3,0.0,94,0.04,,,0.43,VWS V13.01,2013-01-15 15:14:00,
2013-01-15 10:19:00,40.8,39.2,30.37,ESE,112,0.8,0.0,94,0.04,,,0.43,VWS V13.01,2013-01-15 15:19:00,
2013-01-15 10:24:00,40.8,39.2,30.38,East,90,3.5,0.0,94,0.04,,,0.43,VWS V13.01,2013-01-15 15:24:00,
2013-01-15 10:29:00,40.8,39.2,30.38,East,90,3.5,0.0,94,0.04,,,0.43,VWS V13.01,2013-01-15 15:29:00,
2013-01-15 10:34:00,41.0,39.4,30.37,ESE,112,1.3,0.0,94,0.04,,,0.43,VWS V13.01,2013-01-15 15:34:00,
2013-01-15 10:39:00,41.0,39.2,30.38,ENE,68,1.3,0.0,94,0.04,,,0.43,VWS V13.01,2013-01-15 15:39:00,
2013-01-15 10:44:00,41.0,39.2,30.39,East,90,1.3,0.0,94,0.04,,OVC008,0.43,VWS V13.01,2013-01-15 15:44:00,
2013-01-15 10:49:00,41.0,39.2,30.39,NE,45,2.0,0.0,94,0.04,,OVC008,0.43,VWS V13.01,2013-01-15 15:49:00,
2013-01-15 10:54:00,40.8,39.2,30.38,ENE,68,1.3,0.0,94,0.04,,OVC008,0.43,VWS V13.01,2013-01-15 15:54:00,
2013-01-15 10:59:00,40.8,39.2,30.38,ENE,68,5.3,0.0,94,0.08,,OVC008,0.47,VWS V13.01,2013-01-15 15:59:00,
2013-01-15 11:04:00,40.8,39.2,30.38,ENE,68,5.3,0.0,94,0.08,,-RA,0.47,VWS V13.01,2013-01-15 16:04:00,
2013-01-15 11:09:00,40.8,39.4,30.37,ENE,68,5.3,0.0,94,0.04,,-RA,0.47,VWS V13.01,2013-01-15 16:09:00,
2013-01-15 11:14:00,40.8,39.4,30.38,ENE,68,5.3,0.0,94,0.04,,-RA,0.47,VWS V13.01,2013-01-15 16:14:00,
2013-01-15 11:19:00,40.8,39.5,30.37,East,90,3.3,0.0,94,0.04,,-RA,0.47,VWS V13.01,2013-01-15 16:19:00,
2013-01-15 11:24:00,40.8,39.5,30.36,ESE,112,1.7,0.0,94,0.04,,-RA,0.47,VWS V13.01,2013-01-15 16:24:00,
2013-01-15 11:29:00,40.8,39.5,30.37,ESE,112,1.7,0.0,94,0.04,,-RA,0.47,VWS V13.01,2013-01-15 16:29:00,
2013-01-15 11:34:00,40.8,39.5,30.36,ESE,112,1.7,0.0,94,0.04,,-RA,0.47,VWS V13.01,2013-01-15 16:34:00,
2013-01-15 11:39:00,40.8,39.5,30.36,ESE,112,1.7,0.0,94,0.04,,-RA,0.47,VWS V13.01,2013-01-15 16:39:00,
2013-01-15 11:44:00,41.1,39.5,30.34,ESE,112,1.7,0.0,94,0.04,,-RA,0.47,VWS V13.01,2013-01-15 16:44:00,
2013-01-15 11:49:00,41.1,39.2,30.33,East,90,6.0,0.0,94,0.04,,-RA,0.47,VWS V13.01,2013-01-15 16:49:00,
2013-01-15 11:54:00,41.1,39.2,30.33,ENE,68,2.6,0.0,94,0.00,,-RA,0.47,VWS V13.01,2013-01-15 16:54:00,
2013-01-15 11:59:00,41.1,39.2,30.35,NNE,22,2.6,0.0,94,0.00,,-RA,0.47,VWS V13.01,2013-01-15 16:59:00,
2013-01-15 12:04:00,40.8,39.2,30.35,NNE,22,2.6,0.0,94,0.00,,OVC021,0.47,VWS V13.01,2013-01-15 17:04:00,
2013-01-15 12:09:00,40.8,39.2,30.34,NNE,22,2.6,0.0,94,0.00,,OVC021,0.47,VWS V13.01,2013-01-15 17:09:00,
2013-01-15 12:14:00,40.8,39.2,30.34,NNE,22,1.3,0.0,94,0.00,,OVC021,0.47,VWS V13.01,2013-01-15 17:14:00,
2013-01-15 12:19:00,40.8,39.2,30.34,East,90,0.2,0.0,94,0.00,,OVC021,0.47,VWS V13.01,2013-01-15 17:19:00,
2013-01-15 12:24:00,40.8,39.2,30.34,ESE,112,0.6,0.0,94,0.00,,OVC021,0.47,VWS V13.01,2013-01-15 17:24:00,
2013-01-15 12:29:00,40.8,39.2,30.33,ESE,112,2.4,0.0,94,0.02,,OVC021,0.49,VWS V13.01,2013-01-15 17:29:00,
2013-01-15 12:34:00,40.8,39.2,30.32,ESE,112,1.1,0.0,94,0.02,,-RA,0.49,VWS V13.01,2013-01-15 17:34:00,
2013-01-15 12:39:00,40.8,39.2,30.33,ESE,112,1.1,0.0,94,0.02,,-RA,0.49,VWS V13.01,2013-01-15 17:39:00,
2013-01-15 12:44:00,40.8,39.2,30.33,NE,45,1.1,0.0,94,0.06,,OVC090,0.53,VWS V13.01,2013-01-15 17:44:00,
2013-01-15 12:49:00,40.8,39.2,30.32,NE,45,1.1,0.0,94,0.06,,OVC090,0.53,VWS V13.01,2013-01-15 17:49:00,
2013-01-15 12:54:00,40.8,39.2,30.32,NE,45,1.1,0.0,94,0.06,,OVC090,0.53,VWS V13.01,2013-01-15 17:54:00,
2013-01-15 12:59:00,40.8,39.2,30.31,East,90,2.6,0.0,94,0.08,,OVC090,0.55,VWS V13.01,2013-01-15 17:59:00,
2013-01-15 13:04:00,40.8,39.2,30.30,East,90,0.4,0.0,94,0.08,,-RA,0.55,VWS V13.01,2013-01-15 18:04:00,
2013-01-15 13:09:00,40.8,39.2,30.31,East,90,0.4,0.0,94,0.08,,-RA,0.55,VWS V13.01,2013-01-15 18:09:00,
2013-01-15 13:14:00,40.8,39.2,30.30,East,90,0.4,0.0,94,0.08,,-RA,0.55,VWS V13.01,2013-01-15 18:14:00,
2013-01-15 13:19:00,40.8,39.2,30.30,East,90,0.2,0.0,94,0.08,,-RA,0.55,VWS V13.01,2013-01-15 18:19:00,
2013-01-15 13:24:00,40.8,39.2,30.31,East,90,0.2,0.0,94,0.12,,-RA,0.59,VWS V13.01,2013-01-15 18:24:00,
2013-01-15 13:29:00,40.8,39.0,30.30,East,90,0.2,0.0,94,0.10,,-RA,0.59,VWS V13.01,2013-01-15 18:29:00,
2013-01-15 13:35:00,40.6,39.2,30.31,East,90,0.2,0.0,93,0.10,,-RA,0.59,VWS V13.01,2013-01-15 18:35:00,
2013-01-15 13:40:00,40.6,38.5,30.31,East,90,0.2,0.0,93,0.12,,-RA,0.61,VWS V13.01,2013-01-15 18:40:00,
2013-01-15 13:45:00,40.4,38.5,30.30,East,90,3.1,0.0,93,0.08,,-RA,0.61,VWS V13.01,2013-01-15 18:45:00,
2013-01-15 13:50:00,40.4,38.3,30.30,East,90,3.1,0.0,93,0.12,,-RA,0.65,VWS V13.01,2013-01-15 18:50:00,
2013-01-15 13:55:00,40.2,38.3,30.29,ESE,112,3.1,0.0,93,0.10,,-RA,0.65,VWS V13.01,2013-01-15 18:55:00,
2013-01-15 14:00:00,40.2,38.3,30.30,ESE,112,3.1,0.0,93,0.12,,-RA,0.67,VWS V13.01,2013-01-15 19:00:00,
2013-01-15 14:05:00,40.2,38.3,30.29,ENE,68,3.3,0.0,93,0.12,,RA,0.67,VWS V13.01,2013-01-15 19:05:00,
2013-01-15 14:10:00,40.2,38.3,30.30,ENE,68,3.3,0.0,93,0.16,,RA,0.71,VWS V13.01,2013-01-15 19:10:00,
2013-01-15 14:15:00,40.2,38.3,30.30,ENE,68,3.3,0.0,93,0.16,,RA,0.71,VWS V13.01,2013-01-15 19:15:00,
2013-01-15 14:20:00,40.2,38.3,30.30,ENE,68,3.3,0.0,93,0.20,,RA,0.76,VWS V13.01,2013-01-15 19:20:00,
2013-01-15 14:25:00,40.2,38.2,30.30,ENE,68,2.0,0.0,93,0.20,,RA,0.80,VWS V13.01,2013-01-15 19:25:00,
2013-01-15 14:30:00,40.2,38.2,30.30,ENE,68,2.0,0.0,93,0.20,,RA,0.80,VWS V13.01,2013-01-15 19:30:00,
2013-01-15 14:35:00,40.1,38.2,30.30,ENE,68,2.0,0.0,93,0.24,,RA,0.83,VWS V13.01,2013-01-15 19:35:00,
2013-01-15 14:40:00,40.2,38.3,30.32,ENE,68,2.0,0.0,93,0.22,,RA,0.83,VWS V13.01,2013-01-15 19:40:00,
2013-01-15 14:45:00,40.2,38.2,30.31,NE,45,2.0,0.0,93,0.18,,RA,0.83,VWS V13.01,2013-01-15 19:45:00,
2013-01-15 14:50:00,39.9,38.0,30.31,ENE,68,2.0,0.0,93,0.18,,RA,0.83,VWS V13.01,2013-01-15 19:50:00,
2013-01-15 14:55:00,39.9,38.0,30.30,ENE,68,2.0,0.0,93,0.22,,RA,0.88,VWS V13.01,2013-01-15 19:55:00,
2013-01-15 15:00:00,39.9,38.0,30.30,ENE,68,2.0,0.0,93,0.20,,RA,0.88,VWS V13.01,2013-01-15 20:00:00,
2013-01-15 15:05:00,40.1,38.2,30.29,ESE,112,2.4,0.0,93,0.16,,-RA,0.88,VWS V13.01,2013-01-15 20:05:00,
2013-01-15 15:10:00,40.1,38.2,30.29,ESE,112,2.4,0.0,93,0.16,,-RA,0.88,VWS V13.01,2013-01-15 20:10:00,
2013-01-15 15:15:00,40.1,38.2,30.29,ESE,112,2.4,0.0,93,0.12,,-RA,0.88,VWS V13.01,2013-01-15 20:15:00,
2013-01-15 15:20:00,40.1,38.2,30.29,ESE,112,2.4,0.0,93,0.12,,-RA,0.92,VWS V13.01,2013-01-15 20:20:00,
2013-01-15 15:25:00,40.1,38.2,30.29,ESE,112,2.4,0.0,93,0.12,,-RA,0.92,VWS V13.01,2013-01-15 20:25:00,
2013-01-15 15:30:00,40.1,38.0,30.29,ESE,112,2.4,0.0,93,0.08,,-RA,0.92,VWS V13.01,2013-01-15 20:30:00,
2013-01-15 15:35:00,40.1,38.2,30.28,ESE,112,2.4,0.0,93,0.08,,-RA,0.92,VWS V13.01,2013-01-15 20:35:00,
2013-01-15 15:40:00,40.1,38.0,30.29,ENE,68,0.2,0.0,93,0.08,,-RA,0.92,VWS V13.01,2013-01-15 20:40:00,
2013-01-15 15:45:00,39.9,38.2,30.29,ENE,68,0.2,0.0,93,0.08,,-RA,0.92,VWS V13.01,2013-01-15 20:45:00,
2013-01-15 15:50:00,39.9,38.2,30.29,ENE,68,0.2,0.0,93,0.04,,-RA,0.92,VWS V13.01,2013-01-15 20:50:00,
2013-01-15 15:55:00,39.9,38.0,30.28,ENE,68,5.3,0.0,93,0.04,,-RA,0.92,VWS V13.01,2013-01-15 20:55:00,
2013-01-15 16:01:00,39.9,38.0,30.28,ENE,68,1.1,0.0,93,0.04,,-RA,0.92,VWS V13.01,2013-01-15 21:01:00,
2013-01-15 16:06:00,39.7,37.8,30.28,ENE,68,0.2,0.0,93,0.04,,-RA,0.92,VWS V13.01,2013-01-15 21:06:00,
2013-01-15 16:11:00,39.7,37.8,30.28,ENE,68,0.6,0.0,93,0.04,,-RA,0.92,VWS V13.01,2013-01-15 21:11:00,
2013-01-15 16:16:00,39.7,37.7,30.29,East,90,0.6,0.0,93,0.00,,-RA,0.92,VWS V13.01,2013-01-15 21:16:00,
2013-01-15 16:21:00,39.5,37.7,30.29,ENE,68,0.6,0.0,93,0.00,,-RA,0.92,VWS V13.01,2013-01-15 21:21:00,
2013-01-15 16:26:00,39.5,37.5,30.29,ENE,68,3.5,0.0,93,0.00,,-RA,0.92,VWS V13.01,2013-01-15 21:26:00,
2013-01-15 16:31:00,39.3,37.5,30.30,East,90,3.5,0.0,93,0.00,,-RA,0.92,VWS V13.01,2013-01-15 21:31:00,
2013-01-15 16:36:00,39.3,37.5,30.29,ENE,68,0.6,0.0,93,0.00,,-RA,0.92,VWS V13.01,2013-01-15 21:36:00,
2013-01-15 16:41:00,39.3,37.5,30.29,NE,45,1.1,0.0,93,0.00,,-RA,0.92,VWS V13.01,2013-01-15 21:41:00,
2013-01-15 16:46:00,39.3,37.3,30.29,NE,45,1.1,0.0,93,0.04,,-RA,0.96,VWS V13.01,2013-01-15 21:46:00,
2013-01-15 16:51:00,39.3,37.3,30.29,NE,45,1.1,0.0,93,0.04,,-RA,0.96,VWS V13.01,2013-01-15 21:51:00,
2013-01-15 16:56:00,39.2,37.3,30.29,NE,45,1.1,0.0,93,0.04,,-RA,0.96,VWS V13.01,2013-01-15 21:56:00,
2013-01-15 17:01:00,39.3,37.3,30.29,NE,45,1.1,0.0,93,0.04,,-RA,0.96,VWS V13.01,2013-01-15 22:01:00,
2013-01-15 17:06:00,39.2,37.2,30.29,NE,45,1.1,0.0,93,0.04,,-RA,0.96,VWS V13.01,2013-01-15 22:06:00,
2013-01-15 17:11:00,39.2,37.3,30.29,NE,45,1.1,0.0,93,0.06,,-RA,0.98,VWS V13.01,2013-01-15 22:11:00,
2013-01-15 17:16:00,39.2,37.2,30.29,NE,45,1.1,0.0,93,0.06,,-RA,0.98,VWS V13.01,2013-01-15 22:16:00,
2013-01-15 17:21:00,39.0,37.2,30.29,NE,45,1.1,0.0,93,0.06,,-RA,0.98,VWS V13.01,2013-01-15 22:21:00,
2013-01-15 17:26:00,39.0,37.2,30.29,NE,45,1.1,0.0,93,0.06,,-RA,0.98,VWS V13.01,2013-01-15 22:26:00,
2013-01-15 17:31:00,39.0,37.2,30.28,NE,45,1.1,0.0,93,0.10,,-RA,1.02,VWS V13.01,2013-01-15 22:31:00,
2013-01-15 17:36:00,39.0,37.2,30.28,NE,45,1.1,0.0,93,0.10,,RA,1.02,VWS V13.01,2013-01-15 22:36:00,
2013-01-15 17:41:00,39.0,37.2,30.28,ENE,68,1.1,0.0,93,0.14,,RA,1.06,VWS V13.01,2013-01-15 22:41:00,
2013-01-15 17:46:00,38.8,37.0,30.28,ENE,68,0.6,0.0,93,0.10,,RA,1.06,VWS V13.01,2013-01-15 22:46:00,
2013-01-15 17:51:00,38.8,37.0,30.28,East,90,3.5,0.0,93,0.14,,RA,1.10,VWS V13.01,2013-01-15 22:51:00,
2013-01-15 17:56:00,38.8,37.0,30.28,ENE,68,3.5,0.0,93,0.14,,RA,1.10,VWS V13.01,2013-01-15 22:56:00,
2013-01-15 18:01:00,38.8,37.0,30.29,ENE,68,3.5,0.0,93,0.14,,RA,1.10,VWS V13.01,2013-01-15 23:01:00,
2013-01-15 18:06:00,38.4,37.0,30.29,ENE,68,3.5,0.0,93,0.18,,RA,1.14,VWS V13.01,2013-01-15 23:06:00,
2013-01-15 18:11:00,38.4,36.6,30.29,ENE,68,3.5,0.0,93,0.16,,RA,1.14,VWS V13.01,2013-01-15 23:11:00,
2013-01-15 18:16:00,38.4,36.6,30.29,ENE,68,3.5,0.0,93,0.16,,RA,1.14,VWS V13.01,2013-01-15 23:16:00,
2013-01-15 18:21:00,38.4,36.6,30.29,ENE,68,3.5,0.0,93,0.20,,RA,1.19,VWS V13.01,2013-01-15 23:21:00,
2013-01-15 18:26:00,38.4,36.6,30.29,ENE,68,3.5,0.0,93,0.16,,RA,1.19,VWS V13.01,2013-01-15 23:26:00,
2013-01-15 18:31:00,38.4,36.6,30.29,ENE,68,3.5,0.0,93,0.16,,-RA,1.19,VWS V13.01,2013-01-15 23:31:00,
2013-01-15 18:37:00,38.4,36.6,30.29,ENE,68,3.5,0.0,93,0.18,,-RA,1.20,VWS V13.01,2013-01-15 23:37:00,
2013-01-15 18:42:00,38.4,36.6,30.28,ENE,68,0.8,0.0,93,0.14,,-RA,1.20,VWS V13.01,2013-01-15 23:42:00,
2013-01-15 18:47:00,38.4,36.6,30.28,ENE,68,0.8,0.0,93,0.14,,-RA,1.20,VWS V13.01,2013-01-15 23:47:00,
2013-01-15 18:52:00,38.4,36.6,30.29,ENE,68,0.8,0.0,93,0.14,,-RA,1.24,VWS V13.01,2013-01-15 23:52:00,
2013-01-15 18:57:00,38.4,36.6,30.30,ENE,68,0.8,0.0,93,0.14,,-RA,1.24,VWS V13.01,2013-01-15 23:57:00,
2013-01-15 19:02:00,38.3,36.5,30.30,ENE,68,0.8,0.0,93,0.10,,RA,1.24,VWS V13.01,2013-01-16 00:02:00,
2013-01-15 19:07:00,38.3,36.6,30.29,ENE,68,0.8,0.0,93,0.14,,RA,1.28,VWS V13.01,2013-01-16 00:07:00,
2013-01-15 19:12:00,38.3,36.5,30.30,ENE,68,0.8,0.0,93,0.14,,-RA,1.28,VWS V13.01,2013-01-16 00:12:00,
2013-01-15 19:17:00,38.3,36.5,30.30,ENE,68,0.8,0.0,93,0.14,,-RA,1.33,VWS V13.01,2013-01-16 00:17:00,
2013-01-15 19:22:00,38.3,36.3,30.29,ENE,68,0.8,0.0,93,0.18,,-RA,1.37,VWS V13.01,2013-01-16 00:22:00,
2013-01-15 19:27:00,38.1,36.3,30.28,ENE,68,0.8,0.0,93,0.22,,-RA,1.41,VWS V13.01,2013-01-16 00:27:00,
2013-01-15 19:32:00,38.1,36.3,30.28,East,90,0.8,0.0,93,0.20,,RA,1.41,VWS V13.01,2013-01-16 00:32:00,
2013-01-15 19:37:00,38.1,36.3,30.26,ESE,112,0.8,0.0,93,0.24,,RA,1.45,VWS V13.01,2013-01-16 00:37:00,
2013-01-15 19:42:00,37.9,36.3,30.25,East,90,0.8,0.0,93,0.24,,RA,1.45,VWS V13.01,2013-01-16 00:42:00,
2013-01-15 19:47:00,37.9,36.1,30.27,NNE,22,0.6,0.0,93,0.24,,RA,1.45,VWS V13.01,2013-01-16 00:47:00,
2013-01-15 19:52:00,37.9,36.1,30.28,North,0,0.6,0.0,93,0.20,,RA,1.45,VWS V13.01,2013-01-16 00:52:00,
2013-01-15 19:57:00,37.9,35.9,30.28,North,0,0.6,0.0,93,0.24,,RA,1.49,VWS V13.01,2013-01-16 00:57:00,
2013-01-15 20:02:00,37.7,35.9,30.28,North,0,0.6,0.0,93,0.22,,-RA,1.49,VWS V13.01,2013-01-16 01:02:00,
2013-01-15 20:07:00,37.7,35.9,30.27,North,0,0.6,0.0,93,0.24,,-RA,1.53,VWS V13.01,2013-01-16 01:07:00,
2013-01-15 20:12:00,37.7,35.9,30.26,North,0,0.6,0.0,93,0.20,,-RA,1.53,VWS V13.01,2013-01-16 01:12:00,
2013-01-15 20:17:00,37.7,35.9,30.26,North,0,0.6,0.0,93,0.20,,-RA,1.57,VWS V13.01,2013-01-16 01:17:00,
2013-01-15 20:22:00,37.7,35.9,30.25,North,0,0.6,0.0,93,0.16,,-RA,1.57,VWS V13.01,2013-01-16 01:22:00,
2013-01-15 20:27:00,37.7,35.9,30.25,North,0,0.6,0.0,93,0.20,,-RA,1.61,VWS V13.01,2013-01-16 01:27:00,
2013-01-15 20:32:00,37.7,35.9,30.25,NNE,22,0.6,0.0,93,0.20,,RA,1.61,VWS V13.01,2013-01-16 01:32:00,
2013-01-15 20:38:00,37.7,35.9,30.25,NNE,22,0.6,0.0,93,0.20,,RA,1.65,VWS V13.01,2013-01-16 01:38:00,
2013-01-15 20:43:00,37.7,35.9,30.24,NNE,22,0.6,0.0,93,0.20,,RA,1.65,VWS V13.01,2013-01-16 01:43:00,
2013-01-15 20:48:00,37.5,35.9,30.24,ENE,68,1.7,0.0,93,0.20,,RA,1.65,VWS V13.01,2013-01-16 01:48:00,
2013-01-15 20:53:00,37.5,35.7,30.24,NE,45,1.7,0.0,93,0.24,,RA,1.69,VWS V13.01,2013-01-16 01:53:00,
2013-01-15 20:58:00,37.5,35.7,30.24,NE,45,1.7,0.0,93,0.20,,RA,1.69,VWS V13.01,2013-01-16 01:58:00,
2013-01-15 21:03:00,37.5,35.7,30.24,NE,45,1.7,0.0,93,0.20,,RA,1.69,VWS V13.01,2013-01-16 02:03:00,
2013-01-15 21:08:00,37.5,35.7,30.24,NE,45,2.4,0.0,93,0.16,,RA,1.69,VWS V13.01,2013-01-16 02:08:00,
2013-01-15 21:13:00,37.5,35.7,30.23,NE,45,4.4,0.0,93,0.16,,RA,1.69,VWS V13.01,2013-01-16 02:13:00,
2013-01-15 21:18:00,37.5,35.6,30.23,NE,45,4.4,0.0,93,0.12,,RA,1.69,VWS V13.01,2013-01-16 02:18:00,
2013-01-15 21:23:00,37.4,35.6,30.23,NE,45,0.6,0.0,93,0.12,,RA,1.69,VWS V13.01,2013-01-16 02:23:00,
2013-01-15 21:28:00,37.4,35.6,30.22,NE,45,0.6,0.0,93,0.12,,RA,1.73,VWS V13.01,2013-01-16 02:28:00,
2013-01-15 21:33:00,37.4,35.6,30.22,NE,45,0.6,0.0,93,0.12,,-RA,1.73,VWS V13.01,2013-01-16 02:33:00,
2013-01-15 21:38:00,37.4,35.4,30.22,NE,45,0.6,0.0,93,0.08,,-RA,1.73,VWS V13.01,2013-01-16 02:38:00,
2013-01-15 21:43:00,37.2,35.4,30.21,NE,45,0.6,0.0,93,0.08,,RA,1.73,VWS V13.01,2013-01-16 02:43:00,
2013-01-15 21:48:00,37.2,35.4,30.21,NE,45,0.4,0.0,93,0.08,,RA,1.73,VWS V13.01,2013-01-16 02:48:00,
2013-01-15 21:53:00,37.2,35.4,30.21,East,90,2.6,0.0,93,0.04,,RA,1.73,VWS V13.01,2013-01-16 02:53:00,
2013-01-15 21:58:00,37.2,35.4,30.21,East,90,2.6,0.0,93,0.04,,RA,1.73,VWS V13.01,2013-01-16 02:58:00,
2013-01-15 22:03:00,37.2,35.4,30.21,ENE,68,2.6,0.0,93,0.04,,OVC010,1.73,VWS V13.01,2013-01-16 03:03:00,
2013-01-15 22:08:00,37.2,35.2,30.21,NNE,22,2.6,0.0,93,0.08,,OVC010,1.78,VWS V13.01,2013-01-16 03:08:00,
2013-01-15 22:13:00,37.0,35.2,30.21,NE,45,2.6,0.0,93,0.08,,OVC010,1.78,VWS V13.01,2013-01-16 03:13:00,
2013-01-15 22:18:00,37.0,35.2,30.20,ENE,68,2.6,0.0,93,0.12,,OVC010,1.81,VWS V13.01,2013-01-16 03:18:00,
2013-01-15 22:23:00,37.0,35.2,30.20,ENE,68,2.6,0.0,93,0.12,,OVC010,1.81,VWS V13.01,2013-01-16 03:23:00,
2013-01-15 22:28:00,37.0,35.2,30.20,ENE,68,2.6,0.0,93,0.08,,OVC010,1.81,VWS V13.01,2013-01-16 03:28:00,
2013-01-15 22:33:00,36.8,35.0,30.21,East,90,1.1,0.0,93,0.12,,OVC010,1.85,VWS V13.01,2013-01-16 03:33:00,
2013-01-15 22:38:00,36.8,35.0,30.20,East,90,1.1,0.0,93,0.12,,OVC010,1.85,VWS V13.01,2013-01-16 03:38:00,
2013-01-15 22:43:00,36.8,34.8,30.20,East,90,1.1,0.0,93,0.16,,OVC010,1.90,VWS V13.01,2013-01-16 03:43:00,
2013-01-15 22:48:00,36.6,34.8,30.20,East,90,1.1,0.0,93,0.16,,OVC010,1.90,VWS V13.01,2013-01-16 03:48:00,
2013-01-15 22:53:00,36.6,34.8,30.20,NE,45,1.1,0.0,93,0.16,,OVC010,1.90,VWS V13.01,2013-01-16 03:53:00,
2013-01-15 22:58:00,36.6,34.8,30.20,NE,45,1.1,0.0,93,0.16,,OVC010,1.90,VWS V13.01,2013-01-16 03:58:00,
2013-01-15 23:03:00,36.6,34.8,30.20,NE,45,1.1,0.0,93,0.16,, +RA,1.90,VWS V13.01,2013-01-16 04:03:00,
2013-01-15 23:08:00,36.6,34.8,30.20,NE,45,1.1,0.0,93,0.12,, +RA,1.90,VWS V13.01,2013-01-16 04:08:00,
2013-01-15 23:13:00,36.6,34.8,30.20,NE,45,1.1,0.0,93,0.12,, +RA,1.94,VWS V13.01,2013-01-16 04:13:00,
2013-01-15 23:18:00,36.6,34.8,30.20,NE,45,1.1,0.0,93,0.16,, +RA,1.98,VWS V13.01,2013-01-16 04:18:00,
2013-01-15 23:23:00,36.6,34.7,30.20,NE,45,1.1,0.0,93,0.20,, +RA,2.02,VWS V13.01,2013-01-16 04:23:00,
2013-01-15 23:28:00,36.5,34.7,30.20,East,90,1.1,0.0,93,0.20,, +RA,2.02,VWS V13.01,2013-01-16 04:28:00,
2013-01-15 23:33:00,36.5,34.7,30.20,East,90,1.1,0.0,93,0.18,, +RA,2.04,VWS V13.01,2013-01-16 04:33:00,
2013-01-15 23:38:00,36.5,34.7,30.19,East,90,1.1,0.0,93,0.18,, +RA,2.04,VWS V13.01,2013-01-16 04:38:00,
2013-01-15 23:43:00,36.5,34.7,30.19,East,90,1.1,0.0,93,0.14,,RA,2.04,VWS V13.01,2013-01-16 04:43:00,
2013-01-15 23:48:00,36.5,34.7,30.19,East,90,1.1,0.0,93,0.18,,RA,2.08,VWS V13.01,2013-01-16 04:48:00,
2013-01-15 23:53:00,36.5,34.5,30.20,East,90,1.1,0.0,93,0.18,,RA,2.08,VWS V13.01,2013-01-16 04:53:00,
2013-01-15 23:58:00,36.5,34.5,30.20,East,90,1.1,0.0,93,0.18,,RA,2.08,VWS V13.01,2013-01-16 04:58:00,